Torna al catalogo

CZ-6A DEB

AttivoPO
NORAD 60643·DEBRIS·🇨🇳 China

Lanciato Aug 6, 2024 da Taiyuan Satellite Launch Center

Loading…

Prossimi Passaggi (prossime 24 ore)

TLE

AggiornatoSource: Space-Track

Epoca: Sep 13, 2026, 17:33 UTC

1 60643U 24140AU  26256.73163151  .00002804  00000-0  78222-3 0  9996
2 60643  88.9659 258.6679 0050936  44.4773 316.0503 14.45295678110541

Traccia CZ-6A DEB in tempo reale con AllMySat

Download on the App Store